Location: Newark
(25.5428°S, 54.5819°W)
Time: 20:41:06
(UTC+00:00)

Envisat - Pass Details

Date: 30 July 2019
Orbit: 764 x 766 km, 98.1° (Epoch: 19 August)

Event Time Altitude Azimuth Distance (km) Brightness Sun altitude
Rises 08:58:30 0° 53° (NE) 3,222 7.4 -18.0°
Reaches altitude 10° 09:01:39 10° 74° (ENE) 2,305 6.8 -17.3°
Maximum altitude 09:04:39 16° 111° (ESE) 1,931 5.8 -16.6°
Drops below altitude 10° 09:07:40 10° 147° (SSE) 2,321 5.7 -16.0°
Sets 09:10:50 0° 168° (SSE) 3,256 6.2 -15.3°
